SCP
0 0 0 0 0 0 0 0 0 0 0 0 0 0 0 0 0 0 0 0 0 0 0 0 0 0 -0 0 0 0 0 0 -0 0 0 0 0 0 0 0 -0 -0 -0
0 0 0 0 0 0 0 0 0 0 0 0 0 0 0 0 0 0 0 0 -0 -0 -0 -0 -0 -0 0 0 0 0 0 0 0 0 0 0 0 0 0 0 0 0 0
0 0 0 0 0 0 0 0 0 0 0 0 0 0 0 0 0 0 0 0 0 0 0 0 0 0 0 0 0 0 0 -0 1 0 0 0 0 0 0 0 0 0 0
0 0 0 0 0 0 0 0 0 0 0 0 0 0 0 0 0 0 0 0 0 0 0 0 0 0 0 0 0 0 0 0 0 0 0 -0 0 -0 0 0 0 0 0
0 0 0 0 0 0 0 0 0 0 0 0 0 0 0 0 0 0 0 0 0 0 0 0 0 0 0 0 0 0 0 0 0 1 0 0 0 0 0 0 0 1 0
1 0 0 0 0 0 0 0 0 0 0 0 0 0 0 0 0 0 0 0 0 0 1 1 0 0 0 0 0 0 0 1 1 0 0 0 1 1 1 1 0 0 1
1 1 0 1 0 0 0 0 0 0 0 1 0 0 0 0 0 0 0 0 1 0 0 1 1 1 0 0 0 0 0 0 0 0 1 1 1 1 1 1 1 1 1
3 2 2 1 1 1 0 1 1 1 1 1 1 1 1 0 0 0 0 0 0 1 1 1 1 1 0 0 0 0 1 0 0 0 1 1 0 0 1 1 1 1 1
1 1 1 1 1 1 1 1 1 2 2 2 2 1 1 0 0 0 0 0 0 1 1 1 0 0 0 0 0 0 0 0 0 0 0 0 0 0 0 0 1 1 1
1 2 2 2 2 1 1 1 1 2 1 0 0 0 0 0 0 0 0 0 1 1 1 0 0 0 0 0 0 1 1 0 0 0 0 0 0 0 0 0 0 0 0
1 1 1 1 1 1 1 1 1 1 0 0 0 0 0 0 0 0 0 0 0 0 0 0 0 0 0 0 0 0 0 0 0 0 0 0 0 0 0 0 0 0 0
1 1 1 0 0 0 0 0 0 0 0 0 0 0 0 0 0 0 0 0 0 0 0 0 0 0 0 0 0 0 0 0 0 0 0 0 0 0 0 0 0 0 0
0 0 0 0 0 0 0 0 0 0 0 -0 0 0 0 0 0 0 0 0 0 0 0 0 0 0 0 0 0 0 0 0 0 0 0 0 0 0 0 0 0 0 0
0 0 0 0 0 0 0 0 0 0 0 0 0 -0 0 0 0 0 0 0 0 0 0 0 0 0 0 0 0 0 0 0 0 0 0 0 0 0 0 0 0 0 0
0 0 0 0 0 0 0 0 0 0 0 0 0 0 0 0 0 0 0 0 0 0 0 0 0 0 0 0 0 0 0 0 0 0 0 0 0 0 0 0 0 0 0
0 0 0 0 0 0 0 0 0 0 0 0 0 0 0 0 0 0 0 0 0 0 0 0 0 0 0 0 0 0 0 0 0 0 0 0 0 0 0 0 0 0 0
0 0 0 0 0 0 0 0 0 0 0 0 0 0 0 0 0 0 0 0 0 0 0 0 0 0 0 0 0 0 0 0 0 0 0 0 0 0 0 0 0 0 0
0 0 0 0 0 0 0 0 0 0 0 0 0 0 0 0 0 0 0 0 0 0 0 0 0 0 0 0 0 0 0 0 0 0 0 0 0 0 0 0 0 0 0
0 0 0 0 0 0 0 0 0 0 0 0 0 0 0 0 0 0 0 0 0 0 0 0 0 0 0 0 0 0 0 0 0 0 0 0 0 0 0 0 0 0 0
0 0 0 0 0 0 0 0 0 0 0 0 0 0 0 0 0 0 0 0 0 0 0 0 0 0 0 0 0 0 0 0 0 0 0 0 0 0 0 0 0 0 0
0 0 0 0 0 0 0 0 0 0 0 0 0 0 0 0 0 0 0 0 0 0 0 0 0 0 0 0 0 0 0 0 0 0 0 0 0 0 0 0 0 0 0
0 0 0 0 0 0 0 0 0 0 0 0 0 0 0 0 0 0 0 0 0 0 0 0 0 0 0 0 0 0 0 0 0 0 0 0 0 0 0 0 0 0 0
0 0 0 0 0 0 0 0 0 0 0 0 0 0 0 0 0 0 0 0 0 0 0 0 0 0 0 0 0 0 0 0 0 0 0 0 0 0 0 0 0 0 0
0 0 0 0 0 0 0 0 0 0 0 0 0 0 0 0 0 0 0 0 0 0 0 0 0 0 0 0 0 0 0 0 0 0 0 0 0 0 0 0 0 0 0
0 0 0 0 0 0 0 0 0 0 0 0 0 0 0 0 0 0 0 0 0 0 0 0 0 0 0 0 0 0 0 0 0 0 0 0 0 0 0 0 0 0 0
0 0 0 0 0 0 0 0 0 0 0 0 0 0 0 0 0 0 0 0 0 0 0 0 0 0 0 0 0 0 0 0 0 0 0 0 0 0 0 0 0 0 0
Wind_Speed_500mb
39 38 37 36 34 34 29 32 33 27 24 25 27 22 24 25 27 30 28 31 12 17 21 23 23 24 21 22 21 20 21 20 26 20 17 24 26 14 20 16 17 23 20
40 40 39 36 34 32 33 32 30 32 30 29 32 29 27 24 25 25 23 22 25 22 22 25 27 25 26 26 21 24 24 28 27 28 21 16 16 20 13 12 15 7 15
38 40 41 39 37 35 34 34 33 33 32 27 28 25 27 24 25 24 26 26 25 26 26 27 27 28 29 25 33 27 22 28 19 20 23 19 16 17 13 16 6 19 17
40 40 43 41 38 34 34 34 32 34 35 33 28 27 29 28 25 27 31 32 30 27 30 29 31 32 27 27 28 23 24 23 20 19 21 27 23 15 16 12 14 11 11
42 40 40 39 36 36 33 33 31 31 33 33 29 29 29 26 25 29 29 30 31 31 33 33 27 32 37 40 31 28 31 22 26 30 20 26 25 16 15 14 9 17 13
44 39 36 34 33 34 35 35 36 35 34 33 28 29 29 32 39 39 35 34 33 33 36 36 36 37 37 46 40 35 35 35 32 25 26 26 22 19 18 19 12 16 19
43 38 37 34 33 35 33 34 38 36 35 38 31 30 26 35 37 33 30 29 29 32 33 34 37 36 34 38 30 29 30 33 35 32 33 31 30 30 25 18 22 21 15
41 38 40 33 30 31 33 40 41 39 40 42 39 32 27 38 28 28 30 28 25 21 26 24 26 26 32 29 23 27 24 31 31 27 29 28 29 31 31 22 24 21 18
35 38 30 26 31 36 45 43 45 47 45 41 38 37 30 33 29 24 22 22 21 21 23 28 25 27 33 31 34 30 29 41 31 30 33 33 33 32 28 22 20 14 21
19 21 23 33 36 37 34 34 40 34 39 37 39 37 37 43 31 30 31 21 28 23 16 25 34 34 36 33 36 36 36 36 37 33 27 25 21 15 16 22 13 8 10
36 34 15 16 17 17 15 18 23 35 45 47 47 49 43 39 36 35 32 28 31 36 37 37 35 36 34 32 32 31 33 26 21 15 6 6 2 7 14 13 15 14 19
35 31 23 19 17 15 11 14 20 27 37 40 34 32 27 26 28 20 18 19 21 25 25 27 28 27 26 30 31 29 31 25 21 24 28 28 16 13 10 14 18 19 20
36 35 30 25 21 17 17 21 17 25 24 21 12 17 15 8 4 3 6 10 18 23 21 20 20 22 24 23 22 26 30 33 32 31 26 19 13 13 17 21 23 25 18
26 24 23 21 18 19 19 14 13 15 16 14 10 5 6 8 7 5 7 9 10 13 14 17 19 19 19 20 20 21 18 16 18 16 13 16 18 27 28 22 24 14 4
22 23 22 20 16 15 11 13 14 10 7 8 12 11 9 4 4 8 8 9 9 10 13 11 11 10 9 7 4 4 7 11 15 18 21 20 19 19 15 13 8 6 3
25 24 20 16 16 18 13 8 7 7 5 6 8 6 4 3 2 1 4 5 8 8 7 7 9 8 8 8 4 2 6 3 6 8 9 10 7 7 7 3 0 3 5
28 27 25 20 19 16 13 11 7 6 6 4 2 1 2 3 4 4 5 6 6 8 2 6 9 11 11 10 12 17 14 12 10 12 11 16 12 14 8 4 4 5 3
25 26 19 19 17 15 14 14 10 8 6 5 5 4 2 1 3 5 11 13 12 13 16 17 15 15 14 13 13 13 15 14 14 12 12 10 12 12 4 3 2 3 3
20 17 17 17 15 15 13 12 9 10 8 5 3 3 2 2 6 11 14 15 13 14 14 16 10 10 9 13 14 14 10 7 8 7 9 7 9 4 9 5 12 16 11
20 22 17 10 10 9 8 6 5 4 4 5 5 6 13 8 12 15 18 13 12 12 15 15 14 12 21 19 18 15 19 18 21 20 22 23 16 16 18 18 20 15 12
9 9 13 8 6 5 5 5 7 8 10 11 11 15 18 14 12 13 15 14 11 11 14 11 15 14 14 17 17 21 18 14 17 15 18 17 20 10 14 14 11 12 7
8 4 4 3 5 3 5 7 9 11 13 14 14 21 24 26 20 17 18 16 15 14 13 14 13 12 13 15 16 14 15 15 14 12 11 11 11 10 9 7 7 7 7
5 5 7 5 5 10 11 10 12 14 15 17 20 21 20 15 17 20 20 18 17 14 14 14 15 16 16 16 16 16 14 13 14 13 11 10 9 8 8 6 5 5 5
9 11 12 13 13 13 19 18 18 21 22 24 25 26 27 26 26 24 24 22 21 19 19 18 17 17 17 15 13 11 11 15 14 12 11 9 8 12 4 6 5 7 2
15 14 12 15 15 16 16 18 23 22 26 29 31 29 29 30 29 28 25 23 26 26 24 23 20 19 18 19 14 25 30 28 19 16 6 11 9 9 5 4 6 5 5
7 9 12 13 14 16 18 20 23 25 28 31 32 31 32 35 33 31 28 28 27 31 28 26 23 21 20 18 20 30 24 24 22 18 14 5 3 3 3 4 5 4 4
Wind_Direction_500mb
200 202 202 209 214 219 225 228 224 220 223 232 231 229 235 244 251 249 232 233 243 260 264 273 271 277 275 272 288 276 275 280 282 287 317 310 327 338 292 323 349 284 290
200 203 206 207 211 218 221 223 225 224 233 240 241 233 241 250 250 250 254 248 254 253 261 264 266 269 277 284 290 279 277 277 278 287 278 288 289 307 309 352 340 329 330
201 206 207 209 211 212 220 217 220 224 231 235 238 232 239 243 248 251 257 251 251 257 264 265 265 269 270 271 266 268 285 295 274 284 300 287 249 279 269 289 299 263 299
201 205 211 211 213 217 218 220 222 224 231 228 242 244 236 229 247 254 254 240 241 252 260 255 260 262 272 271 275 258 271 275 272 283 277 272 292 218 263 264 306 298 310
199 203 209 213 213 216 218 221 223 227 234 233 235 241 242 237 247 247 252 249 246 246 246 247 259 259 257 262 264 266 257 271 262 270 276 274 268 279 293 295 294 275 273
200 202 204 210 213 215 219 217 234 226 227 242 239 240 234 223 234 244 252 257 262 262 266 261 247 257 266 263 261 264 263 270 271 271 259 278 285 277 272 273 263 280 239
196 199 206 210 218 220 220 226 230 232 226 232 233 239 241 242 247 247 250 253 265 273 276 265 261 254 264 269 275 272 269 268 265 268 277 272 271 277 275 272 270 252 237
190 196 201 208 219 231 234 241 240 236 236 233 232 232 229 243 248 246 249 253 260 264 270 265 262 256 246 257 263 267 267 266 273 259 261 263 270 273 276 272 272 259 240
189 198 213 235 253 251 257 250 248 242 240 235 230 221 216 245 244 238 248 254 260 252 241 245 248 250 260 270 270 267 266 270 273 270 266 271 275 275 271 248 244 236 249
178 201 210 226 237 238 232 238 244 241 239 232 241 228 222 232 235 258 269 252 247 256 252 264 240 261 270 271 271 261 256 263 279 274 273 272 274 263 237 214 198 247 311
234 237 230 247 219 231 241 239 247 248 244 251 241 242 235 244 254 258 257 253 256 258 251 255 277 274 273 273 273 271 262 247 253 264 261 37 131 230 234 236 251 268 279
204 202 205 212 230 220 214 228 239 245 254 238 237 255 249 251 245 229 242 255 266 267 269 265 267 270 266 271 271 267 258 252 204 194 203 204 226 264 299 307 302 302 298
162 164 167 177 168 153 137 125 94 97 93 79 97 118 119 117 93 8 324 309 294 283 276 271 276 277 278 281 276 265 260 251 246 231 225 223 248 284 304 310 307 293 273
157 162 163 167 165 155 154 143 130 135 129 125 133 147 168 180 180 227 249 263 280 282 276 268 262 265 272 276 273 270 264 245 232 228 244 258 272 281 288 289 290 295 311
149 147 149 149 155 175 165 148 140 148 169 188 199 185 181 186 256 278 290 298 298 302 301 288 278 238 221 236 226 224 234 243 251 256 277 284 285 287 294 288 283 307 275
139 137 137 140 140 140 140 145 145 161 198 213 236 242 256 240 274 318 287 283 289 293 309 317 293 262 264 267 256 16 202 91 344 303 294 290 257 265 243 227 195 256 237
132 131 123 117 122 129 114 94 80 89 76 58 46 291 190 198 183 229 256 263 279 291 303 262 245 252 233 221 201 189 227 245 250 226 208 232 216 254 153 229 230 188 256
126 124 117 116 122 126 125 114 112 99 91 81 90 84 66 350 240 253 286 289 301 292 268 253 269 270 263 253 254 257 252 260 257 253 245 242 214 198 263 285 318 223 270
112 121 125 124 127 126 118 123 130 113 122 134 30 10 38 340 300 293 290 281 258 269 281 294 272 273 265 241 237 239 252 235 251 219 219 225 220 213 247 228 282 270 276
142 137 131 134 138 142 147 164 174 173 224 237 246 256 296 300 330 330 318 294 275 268 267 254 249 232 236 230 249 256 280 285 275 256 236 260 262 250 253 281 282 285 308
117 135 144 131 153 173 206 239 254 251 260 265 265 248 236 263 272 272 266 275 281 273 262 254 236 233 234 251 258 275 273 257 266 265 263 265 263 266 280 288 280 285 289
152 150 138 176 212 265 226 250 258 261 264 272 277 268 277 294 269 264 263 259 263 260 243 233 231 239 238 242 254 251 251 243 247 245 237 240 257 269 268 277 287 293 293
210 229 243 258 265 272 280 278 270 275 281 284 281 278 278 270 272 262 258 256 253 253 247 241 243 242 248 251 248 246 236 247 247 239 243 255 263 258 265 254 263 286 296
248 257 260 269 265 267 277 275 278 279 278 283 278 275 274 274 274 270 264 262 256 258 256 254 250 251 252 249 249 255 243 217 218 237 213 231 241 282 237 259 266 249 253
261 257 265 272 280 286 282 284 286 287 283 280 278 277 276 273 272 268 266 257 252 251 249 249 253 255 245 244 221 228 232 251 246 210 220 207 205 218 207 224 231 261 261
236 252 265 277 281 283 284 286 286 285 284 284 280 275 276 274 271 271 263 260 254 255 248 248 246 239 231 241 230 256 260 256 257 249 236 210 174 150 213 219 259 235 281
Wind_Speed_850mb
39 38 37 36 34 34 29 32 33 27 24 25 27 22 24 25 27 30 28 31 12 17 21 23 23 24 21 22 21 20 21 20 26 20 17 24 26 14 20 16 17 23 20
40 40 39 36 34 32 33 32 30 32 30 29 32 29 27 24 25 25 23 22 25 22 22 25 27 25 26 26 21 24 24 28 27 28 21 16 16 20 13 12 15 7 15
38 40 41 39 37 35 34 34 33 33 32 27 28 25 27 24 25 24 26 26 25 26 26 27 27 28 29 25 33 27 22 28 19 20 23 19 16 17 13 16 6 19 17
40 40 43 41 38 34 34 34 32 34 35 33 28 27 29 28 25 27 31 32 30 27 30 29 31 32 27 27 28 23 24 23 20 19 21 27 23 15 16 12 14 11 11
42 40 40 39 36 36 33 33 31 31 33 33 29 29 29 26 25 29 29 30 31 31 33 33 27 32 37 40 31 28 31 22 26 30 20 26 25 16 15 14 9 17 13
44 39 36 34 33 34 35 35 36 35 34 33 28 29 29 32 39 39 35 34 33 33 36 36 36 37 37 46 40 35 35 35 32 25 26 26 22 19 18 19 12 16 19
43 38 37 34 33 35 33 34 38 36 35 38 31 30 26 35 37 33 30 29 29 32 33 34 37 36 34 38 30 29 30 33 35 32 33 31 30 30 25 18 22 21 15
41 38 40 33 30 31 33 40 41 39 40 42 39 32 27 38 28 28 30 28 25 21 26 24 26 26 32 29 23 27 24 31 31 27 29 28 29 31 31 22 24 21 18
35 38 30 26 31 36 45 43 45 47 45 41 38 37 30 33 29 24 22 22 21 21 23 28 25 27 33 31 34 30 29 41 31 30 33 33 33 32 28 22 20 14 21
19 21 23 33 36 37 34 34 40 34 39 37 39 37 37 43 31 30 31 21 28 23 16 25 34 34 36 33 36 36 36 36 37 33 27 25 21 15 16 22 13 8 10
36 34 15 16 17 17 15 18 23 35 45 47 47 49 43 39 36 35 32 28 31 36 37 37 35 36 34 32 32 31 33 26 21 15 6 6 2 7 14 13 15 14 19
35 31 23 19 17 15 11 14 20 27 37 40 34 32 27 26 28 20 18 19 21 25 25 27 28 27 26 30 31 29 31 25 21 24 28 28 16 13 10 14 18 19 20
36 35 30 25 21 17 17 21 17 25 24 21 12 17 15 8 4 3 6 10 18 23 21 20 20 22 24 23 22 26 30 33 32 31 26 19 13 13 17 21 23 25 18
26 24 23 21 18 19 19 14 13 15 16 14 10 5 6 8 7 5 7 9 10 13 14 17 19 19 19 20 20 21 18 16 18 16 13 16 18 27 28 22 24 14 4
22 23 22 20 16 15 11 13 14 10 7 8 12 11 9 4 4 8 8 9 9 10 13 11 11 10 9 7 4 4 7 11 15 18 21 20 19 19 15 13 8 6 3
25 24 20 16 16 18 13 8 7 7 5 6 8 6 4 3 2 1 4 5 8 8 7 7 9 8 8 8 4 2 6 3 6 8 9 10 7 7 7 3 0 3 5
28 27 25 20 19 16 13 11 7 6 6 4 2 1 2 3 4 4 5 6 6 8 2 6 9 11 11 10 12 17 14 12 10 12 11 16 12 14 8 4 4 5 3
25 26 19 19 17 15 14 14 10 8 6 5 5 4 2 1 3 5 11 13 12 13 16 17 15 15 14 13 13 13 15 14 14 12 12 10 12 12 4 3 2 3 3
20 17 17 17 15 15 13 12 9 10 8 5 3 3 2 2 6 11 14 15 13 14 14 16 10 10 9 13 14 14 10 7 8 7 9 7 9 4 9 5 12 16 11
20 22 17 10 10 9 8 6 5 4 4 5 5 6 13 8 12 15 18 13 12 12 15 15 14 12 21 19 18 15 19 18 21 20 22 23 16 16 18 18 20 15 12
9 9 13 8 6 5 5 5 7 8 10 11 11 15 18 14 12 13 15 14 11 11 14 11 15 14 14 17 17 21 18 14 17 15 18 17 20 10 14 14 11 12 7
8 4 4 3 5 3 5 7 9 11 13 14 14 21 24 26 20 17 18 16 15 14 13 14 13 12 13 15 16 14 15 15 14 12 11 11 11 10 9 7 7 7 7
5 5 7 5 5 10 11 10 12 14 15 17 20 21 20 15 17 20 20 18 17 14 14 14 15 16 16 16 16 16 14 13 14 13 11 10 9 8 8 6 5 5 5
9 11 12 13 13 13 19 18 18 21 22 24 25 26 27 26 26 24 24 22 21 19 19 18 17 17 17 15 13 11 11 15 14 12 11 9 8 12 4 6 5 7 2
15 14 12 15 15 16 16 18 23 22 26 29 31 29 29 30 29 28 25 23 26 26 24 23 20 19 18 19 14 25 30 28 19 16 6 11 9 9 5 4 6 5 5
7 9 12 13 14 16 18 20 23 25 28 31 32 31 32 35 33 31 28 28 27 31 28 26 23 21 20 18 20 30 24 24 22 18 14 5 3 3 3 4 5 4 4
Wind_Direction_850mb
200 202 202 209 214 219 225 228 224 220 223 232 231 229 235 244 251 249 232 233 243 260 264 273 271 277 275 272 288 276 275 280 282 287 317 310 327 338 292 323 349 284 290
200 203 206 207 211 218 221 223 225 224 233 240 241 233 241 250 250 250 254 248 254 253 261 264 266 269 277 284 290 279 277 277 278 287 278 288 289 307 309 352 340 329 330
201 206 207 209 211 212 220 217 220 224 231 235 238 232 239 243 248 251 257 251 251 257 264 265 265 269 270 271 266 268 285 295 274 284 300 287 249 279 269 289 299 263 299
201 205 211 211 213 217 218 220 222 224 231 228 242 244 236 229 247 254 254 240 241 252 260 255 260 262 272 271 275 258 271 275 272 283 277 272 292 218 263 264 306 298 310
199 203 209 213 213 216 218 221 223 227 234 233 235 241 242 237 247 247 252 249 246 246 246 247 259 259 257 262 264 266 257 271 262 270 276 274 268 279 293 295 294 275 273
200 202 204 210 213 215 219 217 234 226 227 242 239 240 234 223 234 244 252 257 262 262 266 261 247 257 266 263 261 264 263 270 271 271 259 278 285 277 272 273 263 280 239
196 199 206 210 218 220 220 226 230 232 226 232 233 239 241 242 247 247 250 253 265 273 276 265 261 254 264 269 275 272 269 268 265 268 277 272 271 277 275 272 270 252 237
190 196 201 208 219 231 234 241 240 236 236 233 232 232 229 243 248 246 249 253 260 264 270 265 262 256 246 257 263 267 267 266 273 259 261 263 270 273 276 272 272 259 240
189 198 213 235 253 251 257 250 248 242 240 235 230 221 216 245 244 238 248 254 260 252 241 245 248 250 260 270 270 267 266 270 273 270 266 271 275 275 271 248 244 236 249
178 201 210 226 237 238 232 238 244 241 239 232 241 228 222 232 235 258 269 252 247 256 252 264 240 261 270 271 271 261 256 263 279 274 273 272 274 263 237 214 198 247 311
234 237 230 247 219 231 241 239 247 248 244 251 241 242 235 244 254 258 257 253 256 258 251 255 277 274 273 273 273 271 262 247 253 264 261 37 131 230 234 236 251 268 279
204 202 205 212 230 220 214 228 239 245 254 238 237 255 249 251 245 229 242 255 266 267 269 265 267 270 266 271 271 267 258 252 204 194 203 204 226 264 299 307 302 302 298
162 164 167 177 168 153 137 125 94 97 93 79 97 118 119 117 93 8 324 309 294 283 276 271 276 277 278 281 276 265 260 251 246 231 225 223 248 284 304 310 307 293 273
157 162 163 167 165 155 154 143 130 135 129 125 133 147 168 180 180 227 249 263 280 282 276 268 262 265 272 276 273 270 264 245 232 228 244 258 272 281 288 289 290 295 311
149 147 149 149 155 175 165 148 140 148 169 188 199 185 181 186 256 278 290 298 298 302 301 288 278 238 221 236 226 224 234 243 251 256 277 284 285 287 294 288 283 307 275
139 137 137 140 140 140 140 145 145 161 198 213 236 242 256 240 274 318 287 283 289 293 309 317 293 262 264 267 256 16 202 91 344 303 294 290 257 265 243 227 195 256 237
132 131 123 117 122 129 114 94 80 89 76 58 46 291 190 198 183 229 256 263 279 291 303 262 245 252 233 221 201 189 227 245 250 226 208 232 216 254 153 229 230 188 256
126 124 117 116 122 126 125 114 112 99 91 81 90 84 66 350 240 253 286 289 301 292 268 253 269 270 263 253 254 257 252 260 257 253 245 242 214 198 263 285 318 223 270
112 121 125 124 127 126 118 123 130 113 122 134 30 10 38 340 300 293 290 281 258 269 281 294 272 273 265 241 237 239 252 235 251 219 219 225 220 213 247 228 282 270 276
142 137 131 134 138 142 147 164 174 173 224 237 246 256 296 300 330 330 318 294 275 268 267 254 249 232 236 230 249 256 280 285 275 256 236 260 262 250 253 281 282 285 308
117 135 144 131 153 173 206 239 254 251 260 265 265 248 236 263 272 272 266 275 281 273 262 254 236 233 234 251 258 275 273 257 266 265 263 265 263 266 280 288 280 285 289
152 150 138 176 212 265 226 250 258 261 264 272 277 268 277 294 269 264 263 259 263 260 243 233 231 239 238 242 254 251 251 243 247 245 237 240 257 269 268 277 287 293 293
210 229 243 258 265 272 280 278 270 275 281 284 281 278 278 270 272 262 258 256 253 253 247 241 243 242 248 251 248 246 236 247 247 239 243 255 263 258 265 254 263 286 296
248 257 260 269 265 267 277 275 278 279 278 283 278 275 274 274 274 270 264 262 256 258 256 254 250 251 252 249 249 255 243 217 218 237 213 231 241 282 237 259 266 249 253
261 257 265 272 280 286 282 284 286 287 283 280 278 277 276 273 272 268 266 257 252 251 249 249 253 255 245 244 221 228 232 251 246 210 220 207 205 218 207 224 231 261 261
236 252 265 277 281 283 284 286 286 285 284 284 280 275 276 274 271 271 263 260 254 255 248 248 246 239 231 241 230 256 260 256 257 249 236 210 174 150 213 219 259 235 281